sat.trackr.live / text

‹ back to catalog

STARLINK-33641

NORAD 63718 · 2025-087X

PAYLOAD ACTIVE UNKNOWN

§ Identity

Operator
Country
US
Launch date
2025-04-28
Launch site
AFWTR
Launch vehicle
Mass (kg)
RCS (m²)

Purposes: comms

External: N2YO · Heavens-Above · Gunter

§ Orbital elements

Epoch: 2026-09-20T14:35:59.341344Z

Period
94.01 min
Inclination
53.1596°
Eccentricity
0.0000657
Mean motion
15.31720089 rev/d
Perigee alt
470.2 km
Apogee alt
471.1 km
Semi-major
6,848.8 km
B*
3.8438e-4
RAAN
32.6758°
Arg perigee
98.4375°
Mean anomaly
261.6701°
Rev number
7,906

§ Raw data

STARLINK-336411 63718U 25087X   26263.60832571  .00011589  00000+0  38438-3 0  99902 63718  53.1596  32.6758 0000657  98.4375 261.6701 15.31720089 79062

JSON: /api/v1/satellites/63718 · /tle

For live sub-satellite position, see the globe view (requires WebGL).

§ Visibility from observer

Set your observer location to see the next 7 days of passes ≥ 10°. The values pass through the URL so the page stays shareable.

No JS? Fill the form by hand. The geolocation button needs JavaScript.